Regional Weather Roundup
Issued by NWS Goodland, KS

Home | Current Version | Previous Version | Text Only | Print | Product List | Glossary On
Versions: 1 2 3 4 5 6 7 8 9 10 11 12 13 14 15 16 17 18 19 20 21 22 23 24 25 26 27 28 29 30 31 32 33 34 35 36 37 38 39 40 41 42 43 44 45 46 47 48 49 50
000
ASUS43 KGLD 011608
RWRGLD

GOODLAND FORECAST AREA HOURLY WEATHER ROUNDUP
NATIONAL WEATHER SERVICE GOODLAND KS
1000 AM MDT TUE SEP 01 2015

...OFFICIAL OBSERVATIONS...

CITY           SKY/WX    TMP DP  RH WIND       PRES   REMARKS
GOODLAND KS    SUNNY     77  57  50 S7        30.03S
HILL CITY KS   MOSUNNY   80  61  52 S10       29.96S
IMPERIAL NEB   SUNNY     77  56  48 W7        30.00R
MCCOOK NEB     SUNNY     80  63  55 VRB5      29.96S
AKRON CO       SUNNY     73  56  54 W8        30.08R
BURLINGTON CO  SUNNY     77  57  50 S6        30.07R
LIMON CO       SUNNY     76  55  48 CALM      30.14R
$$

...UNOFFICIAL OBSERVATIONS...

CITY           SKY/WX    TMP DP  RH WIND       PRES   REMARKS
COLBY KS       SUNNY     77  66  69 W6        30.02S
GOVE KS          N/A     79  32  18 MISG        N/A
LENORA KS        N/A     72  32  23 MISG        N/A
NORTON KS      SUNNY     79  55  44 SW6       29.95S
SHARON SPRINGS   N/A     76  62  62 CALM        N/A
KIT CARSON CO    N/A     76  58  53 MISG        N/A
YUMA CO          N/A     77  57  49 NW12        N/A
$$



USA.gov is the U.S. government's official web portal to all federal, state and local government web resources and services.